Needles, CA

8:37 AM PDT on June 25, 2017 (GMT -0700)
Needles

Weather History for KEED - May, 2013

Change the Weather History Date:

Wednesday, May 1, 2013

  Actual Average Record
Temperature  
Mean Temperature 82 °F 77 °F  
Max Temperature 90 °F 90 °F 105 °F (1947)
Min Temperature 73 °F 64 °F 39 °F (1915)
Degree Days  
Heating Degree Days 0    
Cooling Degree Days 16    
Growing Degree Days 32 (Base 50)    
Moisture  
Dew Point 12 °F    
Average Humidity 9    
Maximum Humidity 24    
Minimum Humidity 4    
Precipitation  
Precipitation 0.00 in 0.00 in 0.04 in (1978)
Month to date precipitation 0.00  
Year to date precipitation 2.26  
Sea Level Pressure  
Sea Level Pressure 29.86 in    
Wind  
Wind Speed 19 mph (North)    
Max Wind Speed 33 mph    
Max Gust Speed 45 mph    
Visibility 10 miles    
Events      
T = Trace of Precipitation, MM = Missing Value Source: NWS Daily Summary

Daily Weather History Graph

Daily Weather History Graph

Search for Another Location

Airport or City:

Trip Planner

Search our weather history database for the weather conditions in past years. The results will help you decide how hot, cold, wet, or windy it might be!

Date:

Astronomy

May. 01, 2013 Rise Set
Actual Time 5:47 AM PDT 7:23 PM PDT
Civil Twilight 5:20 AM PDT 7:50 PM PDT
Nautical Twilight 4:48 AM PDT 8:23 PM PDT
Astronomical Twilight 4:14 AM PDT 8:57 PM PDT
Moon 12:35 AM PDT (5/1) 11:30 AM PDT (5/1)
Length of Visible Light 14h 30m
Length of Day
13h 36m
Waning Gibbous, 58% of the Moon is Illuminated
May 1
Waning Gibbous
May 2
Last Quarter
May 9
New
May 17
First Quarter
May 24
Full

Hourly Weather History & Observations

Time (PDT) Temp. Dew Point Humidity Pressure Visibility Wind Dir Wind Speed Gust Speed Precip Events Conditions
12:56 AM 84.9 °F 34.0 °F 16% 29.59 in 10.0 mi SSW 8.1 mph - N/A   Clear
1:56 AM 82.9 °F 35.1 °F 18% 29.60 in 10.0 mi SW 11.5 mph - N/A   Clear
2:56 AM 80.1 °F 34.0 °F 19% 29.63 in 10.0 mi WSW 8.1 mph - N/A   Clear
3:56 AM 79.0 °F 32.0 °F 18% 29.65 in 10.0 mi WSW 9.2 mph - N/A   Clear
4:56 AM 73.9 °F 35.1 °F 24% 29.71 in 10.0 mi NNE 12.7 mph - N/A   Clear
6:56 AM 77.0 °F 10.0 °F 8% 29.81 in 10.0 mi North 28.8 mph 41.4 mph N/A   Clear
7:56 AM 78.1 °F 10.0 °F 7% 29.85 in 10.0 mi North 32.2 mph 41.4 mph N/A   Clear
8:56 AM 79.0 °F 10.0 °F 7% 29.88 in 10.0 mi NNE 33.4 mph 40.3 mph N/A   Clear
9:56 AM 81.0 °F 9.0 °F 6% 29.89 in 10.0 mi NNE 31.1 mph 44.9 mph N/A   Clear
11:56 AM 84.9 °F 7.0 °F 5% 29.91 in 10.0 mi North 31.1 mph 41.4 mph N/A   Clear
12:56 PM 87.1 °F 6.1 °F 5% 29.91 in 10.0 mi North 32.2 mph 40.3 mph N/A   Clear
1:56 PM 88.0 °F 1.9 °F 4% 29.91 in 10.0 mi NNE 31.1 mph 39.1 mph N/A   Clear
2:56 PM 90.0 °F 1.0 °F 4% 29.89 in 10.0 mi North 28.8 mph 39.1 mph N/A   Clear
4:56 PM 88.0 °F -2.0 °F 4% 29.90 in 10.0 mi NNE 33.4 mph 39.1 mph N/A   Clear
5:56 PM 87.1 °F 1.0 °F 4% 29.91 in 10.0 mi North 31.1 mph 36.8 mph N/A   Clear
6:56 PM 82.9 °F 3.9 °F 5% 29.92 in 10.0 mi North 24.2 mph 36.8 mph N/A   Clear
7:56 PM 80.1 °F 5.0 °F 6% 29.95 in 10.0 mi North 17.3 mph - N/A   Clear
8:56 PM 79.0 °F 3.9 °F 6% 29.98 in 10.0 mi North 18.4 mph - N/A   Clear
9:56 PM 77.0 °F 5.0 °F 6% 30.01 in 10.0 mi North 21.9 mph 32.2 mph N/A   Clear
10:56 PM 75.0 °F 3.9 °F 6% 30.04 in 10.0 mi North 20.7 mph 31.1 mph N/A   Clear
11:56 PM 73.0 °F 1.0 °F 6% 30.08 in 10.0 mi North 23.0 mph 34.5 mph N/A   Clear